Location: Bismarck
(46.7731°N, 100.8200°W)
Time: 12:03:35
(UTC-05:00)

Landsat 7 - Visible Passes

Search period start: 28 September 2016 00:00
Search period end: 08 October 2016 00:00
Orbit: 701 x 703 km, 98.2° (Epoch: 28 September)

Date Brightness Start Highest point End Pass type
(mag) Time Alt. Az. Time Alt. Az. Time Alt. Az.
28 Sep 6.1 21:59:29 13° NNE 21:59:29 13° NNE 22:00:16 10° NNE visible
28 Sep 6.5 23:38:22 16° NNW 23:38:22 16° NNW 23:39:16 10° NNW visible
29 Sep 6.1 22:42:52 17° N 22:42:52 17° N 22:44:01 10° N visible
30 Sep 6.3 21:47:22 10° NNE 21:47:22 10° NNE 21:47:28 10° NNE visible
30 Sep 6.5 23:26:15 15° NNW 23:26:15 15° NNW 23:27:04 10° NNW visible
01 Oct 6.2 22:30:45 14° NNE 22:30:45 14° NNE 22:31:37 10° N visible
02 Oct 6.5 23:14:08 14° N 23:14:08 14° N 23:14:50 10° N visible
03 Oct 6.3 22:18:38 12° NNE 22:18:38 12° NNE 22:19:09 10° NNE visible
04 Oct 6.5 23:02:01 13° N 23:02:01 13° N 23:02:32 10° N visible
05 Oct 6.4 22:06:31 10° NNE 22:06:31 10° NNE 22:06:36 10° NNE visible
06 Oct 6.6 22:49:54 12° N 22:49:54 12° N 22:50:13 10° N visible
